Flight Information

DEPARTURE
OLYMPIA, WA
Elevation:
207
Runways:
8/26 - 4157x150 - ASPH-G
17/35 - 5500x150 - ASPH-G
ATIS:
135.725
Ground:
121.6
Tower:
OLYMPIA TOWER 124.4
DESTINATION
,
Elevation:
TPA:
1000 (est.)


6705.2 NM65° True-20° Var44° HDG

Flight Plan:
(click to file on line)

1. Type
2. Aircraft Identification
3. Aircraft Type / Special Equipment
4. True Airspeed
kts
5. Departure Airport
(ICAO code)
6. Arriving Airport
(ICAO code)
7. Cruising Altitude
ft
8. Alternate Airport
(ICAO code)
9. Route of Flight
10. Remarks


00:00:00 Departure ATIS: Destination ATIS:

Clearance Limit:
Route:
Altitude: Expect in minutes
Frequency:
Transponder: (7500 Hijack / 7600 Lost Comms / 7700 Emergency)


KOLM 211654Z VRB04KT 10SM SCT005 14/11 A3021 RMK AO2 SLP231 T01390111
Time: 2021-09-21T16:54:00Z
1632246983
Winds: variable
Visibility: 10.0 sm
Clouds (AGL): SCT 500
Temperature: 13.9 C
Dew Point: 11.1 C
Pressure: 30.209646 in Hgbr


Notes:

Data extracted from FAA Digital Chart Supplement. Effective: 0901Z Thursday, AUG 12, 2021 to 0901Z Thursday, OCT 7, 2021
Current ATIS data is provided courtisy of PilotEdge.